Flag for Poland Weather past 2 weeks in Gdańsk, Poland

Now
43 °F

Clear.


Feels Like: 39 °F
Forecast: 50 / 60 °F
Wind: 7 mph from West

Location: Gdansk-Rebiechowo

Current Time: May 28, 2015 at 4:14:58 AM

Latest Report: May 28, 2015 at 3:30 AM


Visibility: 10 mi

Pressure: 29.95 "Hg

Humidity: 100%

Dew point: 43 °F

Location of GdańskLocation

Historic Weather in Gdańsk — Graph

°F

Gdańsk temperature yesterday

Maximum temperature yesterday: 57 °F (at 2:00 PM)
Minimum temperature yesterday: 43 °F (at 4:00 AM)
Average temperature yesterday: 50 °F

Past Weeks' High & Low Weather Summary

 TemperatureHumidityPressure
High73 °F (May 19, 1:00 PM)100% (May 15, 3:30 AM)30.27 "Hg (May 15, 3:30 AM)
Low37 °F (May 24, 5:30 AM)24% (May 15, 5:00 PM)29.59 "Hg (May 19, 11:00 AM)
Average51 °F73%29.95 "Hg
* Reported May 13 3:00 AM — May 28 3:00 AM, Gdańsk, Weather by CustomWeather, © 2015

Note: Actual official high and low records may vary slightly from our data, if they occured in-between our weather recording intervals... More about our weather records

Advertising

Gdańsk weather history for previous 24 hours

 ConditionsComfort  
Time TempWeatherWind HumidityBarometerVisibility
3:00 AM
Thu, May 28
45 °FClear.7 mph93%29.95 "Hg10 mi
2:30 AM45 °FPassing clouds.5 mph93%29.95 "HgN/A
2:00 AM45 °FClear.6 mph93%29.95 "Hg10 mi
1:30 AM45 °FPassing clouds.7 mph93%29.95 "HgN/A
1:00 AM45 °FPassing clouds.6 mph93%29.95 "HgN/A
12:30 AM45 °FClear.8 mph93%29.95 "Hg10 mi
12:00 AM46 °FClear.9 mph87%29.95 "Hg10 mi
11:00 PM
Wed, May 27
46 °FClear.10 mph82%29.95 "Hg10 mi
10:30 PM46 °FClear.8 mph82%29.95 "Hg10 mi
10:00 PM48 °FSunny.7 mph76%29.98 "Hg10 mi
9:30 PM48 °FSunny.8 mph76%29.98 "Hg10 mi
9:00 PM50 °FSunny.13 mph71%29.98 "Hg10 mi
8:30 PM50 °FPassing clouds.12 mph71%29.95 "HgN/A
8:00 PM52 °FPassing clouds.15 mph62%29.98 "HgN/A
7:30 PM54 °FPassing clouds.18 mph58%29.95 "HgN/A
7:00 PM54 °FScattered clouds.18 mph58%29.95 "HgN/A
6:30 PM54 °FPartly sunny.15 mph63%29.95 "HgN/A
6:00 PM54 °FPartly sunny.20 mph58%29.95 "HgN/A
5:30 PM55 °FScattered clouds.15 mph59%29.95 "HgN/A
5:00 PM55 °FScattered clouds.17 mph59%29.95 "HgN/A
4:30 PM55 °FPartly sunny.15 mph55%29.95 "HgN/A
4:00 PM54 °FScattered clouds.21 mph63%29.95 "HgN/A
3:30 PM55 °FPartly sunny.17 mph51%29.95 "HgN/A
3:00 PM55 °FPartly sunny.20 mph55%29.98 "HgN/A
2:30 PM57 °FScattered clouds.18 mph51%29.95 "HgN/A
2:00 PM57 °FScattered clouds.16 mph51%29.95 "HgN/A
1:30 PM55 °FScattered clouds.17 mph55%29.95 "HgN/A
1:00 PM55 °FScattered clouds.18 mph51%29.95 "HgN/A
12:30 PM55 °FScattered clouds.15 mph55%29.98 "HgN/A
12:00 PM55 °FScattered clouds.16 mph55%29.95 "HgN/A
11:30 AM54 °FScattered clouds.18 mph58%29.98 "HgN/A
11:00 AM54 °FScattered clouds.16 mph54%29.98 "HgN/A
10:30 AM54 °FScattered clouds.16 mph63%29.98 "HgN/A
10:00 AM54 °FScattered clouds.21 mph63%29.95 "HgN/A
9:30 AM52 °FScattered clouds.18 mph67%29.95 "HgN/A
9:00 AM52 °FScattered clouds.17 mph67%29.95 "HgN/A
8:30 AM52 °FScattered clouds.20 mph67%29.95 "HgN/A
8:00 AM52 °FScattered clouds.15 mph77%29.95 "HgN/A
7:30 AM50 °FPassing clouds.15 mph82%29.95 "HgN/A
7:00 AM48 °FPassing clouds.10 mph87%29.95 "HgN/A
6:30 AM46 °FSunny.10 mph93%29.95 "Hg10 mi
6:00 AM46 °FSunny.6 mph93%29.95 "Hg10 mi
5:30 AM45 °FSunny.3 mph93%29.95 "Hg10 mi
5:00 AM43 °FClear.6 mph100%29.92 "Hg10 mi
4:30 AM43 °FClear.10 mph100%29.92 "Hg10 mi
4:00 AM43 °FClear.8 mph100%29.92 "Hg10 mi
Weather by CustomWeather, © 2015

See weather overviewHow to use our weather pages